Location: Carella
(45.8167°N, 9.2667°E)
Time: 07:43:18
(UTC+00:00)

Cosmos 2184 Rocket - Pass Details

Date: 30 March 2020
Orbit: 958 x 1003 km, 82.9° (Epoch: 02 June)

Event Time Altitude Azimuth Distance (km) Brightness Sun altitude
Rises 19:47:25 0° 351° (N) 3,726 7.6 -20.3°
Reaches altitude 10° 19:49:58 10° 352° (N) 2,767 6.9 -20.7°
Maximum altitude 19:56:20 87° 80° (E) 993 3.9 -21.6°
Enters shadow 19:59:54 28° 171° (S) 1,749 5.0 -22.2°
